Terminal Aerodrome Forecast
Issued by NWS Mt. Holly, NJ

Home | Current Version | Previous Version | Text Only | Print | Product List | Glossary On
Versions: 1 2 3 4 5 6 7 8 9 10 11 12 13 14 15 16 17 18 19 20 21
894
FTUS41 KPHI 231128
TAFRDG
TAF
KRDG 231128Z 2312/2412 00000KT 1/2SM FG OVC002
     FM231300 VRB03KT P6SM OVC200
      TEMPO 2313/2314 2SM BR
     FM231600 08004KT P6SM BKN200
     FM240600 VRB03KT P6SM SCT090=

USA.gov is the U.S. government's official web portal to all federal, state and local government web resources and services.